Miscellaneous Local Product
Issued by NWS Hastings, NE

Home | Current Version | Previous Version | Text Only | Print | Product List | Glossary Off
Versions: 1 2 3 4 5 6 7 8 9 10 11 12 13 14 15 16 17 18 19 20 21 22 23 24 25 26 27 28 29 30 31 32 33 34 35 36 37 38 39 40 41 42 43 44 45 46 47 48 49 50

000
AXUS43 KGID 201902
MISGRI

GID CWA HOURLY WEATHER ROUNDUP
NATIONAL WEATHER SERVICE HASTINGS NE
200 PM CDT SAT SEP 20 2014

NOTE: "FAIR" INDICATES FEW OR NO CLOUDS BELOW 12,000 FEET WITH NO
SIGNIFICANT WEATHER AND/OR OBSTRUCTIONS TO VISIBILITY.

...SOUTH CENTRAL NEBRASKA...

CITY           SKY/WX    TMP DP  RH WIND       PRES   REMARKS
GRAND ISLAND   SUNNY     85  54  34 N8        30.01S
HASTINGS       SUNNY     84  51  31 NE8       30.01S
KEARNEY        SUNNY     81  54  39 N6        30.04S
ORD            SUNNY     82  53  36 N9        30.01S
YORK           SUNNY     82  59  44 NW5       29.99R
AURORA         SUNNY     82  53  35 NW5       30.00S
LEXINGTON      SUNNY     83  51  32 NE6       30.06S
HOLDREGE       SUNNY     81  52  36 NE8       30.04S
HEBRON         MOSUNNY   85  55  34 NE10      29.98S

...NEBRASKA PANHANDLE...

CITY           SKY/WX    TMP DP  RH WIND       PRES   REMARKS
CHADRON        SUNNY     80  45  28 NW21G29   30.15S
ALLIANCE       SUNNY     80  45  28 N14       30.17S
SCOTTSBLUFF    SUNNY     81  50  33 W10       30.18F
SIDNEY         SUNNY     81  46  29 NE7       30.21S

...WESTERN AND NORTH CENTRAL NEBRASKA...

CITY           SKY/WX    TMP DP  RH WIND       PRES   REMARKS
VALENTINE      SUNNY     82  47  29 NW20G33   30.06R
AINSWORTH      SUNNY     80  47  31 NW10      30.06S
ONEILL         SUNNY     81  54  38 NW15      30.01S
BROKEN BOW     SUNNY     85  49  28 N15       30.05S
IMPERIAL       SUNNY     83  46  27 N10       30.13S
NORTH PLATTE   SUNNY     83  49  30 N8        30.09S
MCCOOK         SUNNY     85  50  29 NE12      30.07F

...EASTERN NEBRASKA...

CITY           SKY/WX    TMP DP  RH WIND       PRES   REMARKS
NORFOLK        SUNNY     82  55  39 NW13      29.96S
SO SIOUX CITY  SUNNY     83  59  44 NW8       29.92S
TEKAMAH        SUNNY     85  60  42 NW9       29.92
ALBION         SUNNY     82  51  34 NW10      29.99S
OMAHA EPPLEY   MOSUNNY   82  67  60 SW8       29.92S
OFFUTT AFB     SUNNY     82  71  68 W8        29.93R
MILLARD        SUNNY     82  67  60 W8        29.93S
LINCOLN        SUNNY     86  62  44 CALM      29.96R
NEBRASKA CITY    N/A     79  62  55 SW10      29.94F
BEATRICE       PTSUNNY   80  64  58 CALM      29.96F
FALLS CITY     PTSUNNY   75  72  90 W10       29.94R

...NORTHERN KANSAS...

CITY           SKY/WX    TMP DP  RH WIND       PRES   REMARKS
GOODLAND       SUNNY     82  53  36 NE13G25   30.13F
HILL CITY      SUNNY     87  60  40 NE17G23   30.02S
NORTON         CLEAR     88  45  22 NE16G22   30.04S
SMITH CENTER   MOSUNNY   84  63  48 N12G18    30.00S
BELOIT         MOSUNNY   88  66  48 CALM      29.96S HX  90
HAYS           SUNNY     84  66  54 E5        29.98S
RUSSELL        SUNNY     85  67  54 VRB3      29.96F
CONCORDIA      PTSUNNY   84  69  60 W6        29.97R
SALINA         MOSUNNY   89  65  44 SW10G17   29.96F HX  91
TOPEKA         MOSUNNY   87  69  54 SW7       29.96S HX  91



USA.gov is the U.S. government's official web portal to all federal, state and local government web resources and services.